Terug naar catalogus

DELTA 1 DEB

ActiefUNKNOWN
NORAD 28979·DEBRIS·🇺🇸 United States

Gelanceerd Jul 29, 1976 vanaf Vandenberg Space Force Base

Loading…

Volgende Passages (komende 24 uur)

TLE

VersSource: Space-Track

Epoch: Sep 13, 2026, 18:15 UTC

1 28979U 76077FU  26256.76072203 -.00000001  00000-0  61894-3 0  9993
2 28979 102.0330 354.6378 0802759 183.0076 176.5887 10.95268112893140

Volg DELTA 1 DEB in realtime met AllMySat

Download on the App Store